When you browse on this site, cookies collect data to enhance your experience and personalize the content and advertising you see.
Visit our Privacy Policy to learn more. By continuing to use the site, you agree to this use of cookies and data.
  • En España
  • Lista de países
  • Para 7 días
  • Temperatura del agua
  • Mapa Satelital
  • El tiempo en el mapa
  • Informadores
  • user-avatar
    Iniciar sesión

    Tiempo cada hora Norfolk

    Hoy, 21 Abril, Domingo

    Tiempo Temperatura Precipitaciones Viento Presión Humedad
    00:00 +14°C° 0 mm 4 mps 759 mmHg 71%
    01:00 +13°C° 0 mm 5 mps 759 mmHg 71%
    02:00 +13°C° 0 mm 4 mps 760 mmHg 72%
    03:00 +12°C° 0 mm 4 mps 760 mmHg 73%
    04:00 +11°C° 0 mm 3 mps 760 mmHg 73%
    05:00 +12°C° 0 mm 3 mps 760 mmHg 72%
    06:00 +13°C° 0 mm 2 mps 761 mmHg 71%
    07:00 +13°C° 0 mm 2 mps 761 mmHg 70%
    08:00 +15°C° 0 mm 2 mps 761 mmHg 64%
    09:00 +16°C° 0 mm 2 mps 761 mmHg 58%
    10:00 +19°C° 0 mm 1 mps 761 mmHg 52%
    11:00 +19°C° 0 mm 1 mps 762 mmHg 52%
    12:00 +18°C° 0 mm 2 mps 762 mmHg 53%
    13:00 +18°C° 0 mm 2 mps 762 mmHg 53%
    14:00 +18°C° 0 mm 2 mps 762 mmHg 56%
    15:00 +17°C° 0 mm 2 mps 762 mmHg 59%
    16:00 +17°C° 0 mm 2 mps 762 mmHg 62%
    17:00 +17°C° 0.1 mm 2 mps 762 mmHg 65%
    18:00 +16°C° 0.1 mm 1 mps 762 mmHg 68%
    19:00 +16°C° 0.1 mm 1 mps 762 mmHg 71%
    20:00 +15°C° 0.3 mm 1 mps 763 mmHg 74%
    21:00 +15°C° 0.3 mm 1 mps 763 mmHg 77%
    22:00 +15°C° 0.3 mm 1 mps 763 mmHg 79%
    23:00 +14°C° 0.2 mm 2 mps 763 mmHg 79%

    Mañana, 22 Abril, Lunes

    Tiempo Temperatura Precipitaciones Viento Presión Humedad
    00:00 +14°C° 0.2 mm 2 mps 763 mmHg 80%
    01:00 +13°C° 0.2 mm 3 mps 763 mmHg 80%
    02:00 +13°C° 0 mm 4 mps 763 mmHg 81%
    03:00 +13°C° 0 mm 4 mps 763 mmHg 81%
    04:00 +12°C° 0 mm 5 mps 763 mmHg 82%
    05:00 +12°C° 0 mm 5 mps 763 mmHg 80%
    06:00 +12°C° 0 mm 5 mps 764 mmHg 78%
    07:00 +12°C° 0 mm 5 mps 764 mmHg 76%
    08:00 +14°C° 0 mm 4 mps 764 mmHg 71%
    09:00 +15°C° 0 mm 4 mps 765 mmHg 66%
    10:00 +17°C° 0 mm 4 mps 765 mmHg 61%
    11:00 +19°C° 0 mm 3 mps 765 mmHg 57%
    12:00 +20°C° 0 mm 3 mps 764 mmHg 53%
    13:00 +21°C° 0 mm 3 mps 764 mmHg 49%
    14:00 +21°C° 0 mm 2 mps 764 mmHg 51%
    15:00 +21°C° 0 mm 2 mps 764 mmHg 52%
    16:00 +21°C° 0 mm 2 mps 763 mmHg 54%
    17:00 +21°C° 0 mm 1 mps 763 mmHg 57%
    18:00 +20°C° 0 mm 1 mps 764 mmHg 60%
    19:00 +17°C° 0 mm 0 mps 764 mmHg 63%
    20:00 +18°C° 0 mm 1 mps 764 mmHg 65%
    21:00 +18°C° 0 mm 1 mps 764 mmHg 67%
    22:00 +16°C° 0 mm 2 mps 765 mmHg 69%
    23:00 +16°C° 0 mm 2 mps 764 mmHg 71%

    Pasado mañana, 23 Abril, Martes

    Tiempo Temperatura Precipitaciones Viento Presión Humedad
    00:00 +15°C° 0 mm 2 mps 764 mmHg 72%
    01:00 +15°C° 0 mm 2 mps 764 mmHg 74%
    02:00 +15°C° 0 mm 2 mps 764 mmHg 73%
    03:00 +14°C° 0 mm 2 mps 764 mmHg 72%
    04:00 +14°C° 0 mm 2 mps 764 mmHg 72%
    05:00 +15°C° 0 mm 2 mps 764 mmHg 69%
    06:00 +15°C° 0 mm 2 mps 764 mmHg 67%
    07:00 +16°C° 0 mm 2 mps 764 mmHg 65%
    08:00 +18°C° 0 mm 2 mps 764 mmHg 58%
    09:00 +20°C° 0 mm 2 mps 764 mmHg 52%
    10:00 +24°C° 0 mm 2 mps 764 mmHg 45%
    11:00 +25°C° 0 mm 2 mps 764 mmHg 42%
    12:00 +26°C° 0 mm 2 mps 763 mmHg 40%
    13:00 +27°C° 0 mm 1 mps 763 mmHg 37%
    14:00 +27°C° 0 mm 2 mps 762 mmHg 39%
    15:00 +27°C° 0 mm 2 mps 762 mmHg 40%
    16:00 +28°C° 0 mm 3 mps 761 mmHg 41%
    17:00 +26°C° 0 mm 3 mps 761 mmHg 48%
    18:00 +24°C° 0 mm 3 mps 761 mmHg 54%
    19:00 +22°C° 0 mm 4 mps 761 mmHg 60%
    20:00 +21°C° 0 mm 4 mps 761 mmHg 62%
    21:00 +20°C° 0 mm 5 mps 761 mmHg 63%
    22:00 +19°C° 0 mm 5 mps 761 mmHg 65%
    23:00 +19°C° 0 mm 5 mps 760 mmHg 66%

    24 Abril, Miércoles

    Tiempo Temperatura Precipitaciones Viento Presión Humedad
    00:00 +17°C° 0 mm 5 mps 760 mmHg 66%
    01:00 +17°C° 0 mm 6 mps 760 mmHg 67%
    02:00 +17°C° 0 mm 5 mps 760 mmHg 71%
    03:00 +17°C° 0 mm 5 mps 759 mmHg 74%
    04:00 +17°C° 0 mm 5 mps 759 mmHg 78%
    05:00 +18°C° 0 mm 4 mps 759 mmHg 78%
    06:00 +19°C° 0 mm 4 mps 759 mmHg 78%
    07:00 +19°C° 0 mm 3 mps 759 mmHg 78%
    08:00 +21°C° 0 mm 3 mps 760 mmHg 71%
    09:00 +24°C° 0 mm 3 mps 760 mmHg 64%
    10:00 +26°C° 0 mm 2 mps 760 mmHg 57%
    11:00 +26°C° 0.2 mm 2 mps 760 mmHg 58%
    12:00 +26°C° 0.2 mm 3 mps 760 mmHg 59%
    13:00 +26°C° 0.2 mm 3 mps 759 mmHg 60%
    14:00 +25°C° 1.1 mm 3 mps 759 mmHg 63%
    15:00 +24°C° 1.1 mm 2 mps 759 mmHg 65%
    16:00 +24°C° 1.1 mm 2 mps 759 mmHg 68%
    17:00 +21°C° 0.1 mm 2 mps 759 mmHg 70%
    18:00 +20°C° 0.1 mm 2 mps 760 mmHg 72%
    19:00 +19°C° 0.1 mm 2 mps 760 mmHg 74%
    20:00 +20°C° 0 mm 1 mps 760 mmHg 74%
    21:00 +19°C° 0 mm 1 mps 761 mmHg 73%
    22:00 +18°C° 0 mm 1 mps 761 mmHg 73%
    23:00 +18°C° 0 mm 1 mps 761 mmHg 72%

    25 Abril, Jueves

    Tiempo Temperatura Precipitaciones Viento Presión Humedad
    00:00 +18°C° 0 mm 1 mps 761 mmHg 70%
    01:00 +16°C° 0 mm 1 mps 761 mmHg 69%
    02:00 +16°C° 0 mm 2 mps 761 mmHg 67%
    03:00 +16°C° 0 mm 2 mps 762 mmHg 65%
    04:00 +14°C° 0 mm 3 mps 762 mmHg 62%
    05:00 +16°C° 0 mm 3 mps 762 mmHg 62%
    06:00 +16°C° 0 mm 3 mps 762 mmHg 61%
    07:00 +16°C° 0 mm 3 mps 763 mmHg 60%
    08:00 +17°C° 0 mm 3 mps 763 mmHg 55%
    09:00 +19°C° 0 mm 3 mps 763 mmHg 51%
    10:00 +20°C° 0 mm 3 mps 763 mmHg 47%
    11:00 +21°C° 0 mm 3 mps 763 mmHg 46%
    12:00 +22°C° 0 mm 3 mps 762 mmHg 46%
    13:00 +24°C° 0 mm 3 mps 762 mmHg 45%
    14:00 +22°C° 0 mm 3 mps 762 mmHg 47%
    15:00 +22°C° 0 mm 4 mps 761 mmHg 50%
    16:00 +22°C° 0 mm 4 mps 761 mmHg 52%
    17:00 +20°C° 0 mm 4 mps 761 mmHg 56%
    18:00 +19°C° 0 mm 4 mps 761 mmHg 61%
    19:00 +17°C° 0 mm 4 mps 761 mmHg 65%
    20:00 +17°C° 0.2 mm 4 mps 761 mmHg 69%
    21:00 +15°C° 0.2 mm 4 mps 762 mmHg 73%
    22:00 +15°C° 0.2 mm 4 mps 762 mmHg 78%
    23:00 +16°C° 0.5 mm 3 mps 761 mmHg 81%

    26 Abril, Viernes

    Tiempo Temperatura Precipitaciones Viento Presión Humedad
    00:00 +16°C° 0.5 mm 3 mps 760 mmHg 84%
    01:00 +16°C° 0.5 mm 3 mps 760 mmHg 88%
    02:00 +16°C° 0.7 mm 2 mps 759 mmHg 90%
    03:00 +16°C° 0.7 mm 2 mps 759 mmHg 92%
    04:00 +18°C° 0.7 mm 1 mps 758 mmHg 95%
    05:00 +18°C° 0.6 mm 1 mps 758 mmHg 95%
    06:00 +18°C° 0.6 mm 1 mps 758 mmHg 95%
    07:00 +18°C° 0.6 mm 1 mps 758 mmHg 94%
    08:00 +18°C° 0.5 mm 2 mps 758 mmHg 91%
    09:00 +19°C° 0.5 mm 2 mps 758 mmHg 89%
    10:00 +20°C° 0.5 mm 2 mps 758 mmHg 86%
    11:00 +20°C° 0.7 mm 3 mps 758 mmHg 81%
    12:00 +21°C° 0.7 mm 4 mps 757 mmHg 76%
    13:00 +22°C° 0.7 mm 4 mps 757 mmHg 72%
    14:00 +21°C° 0.8 mm 5 mps 757 mmHg 75%
    15:00 +20°C° 0.8 mm 5 mps 758 mmHg 78%
    16:00 +19°C° 0.8 mm 6 mps 758 mmHg 82%
    17:00 +17°C° 0 mm 5 mps 759 mmHg 82%
    18:00 +16°C° 0 mm 5 mps 759 mmHg 82%
    19:00 +15°C° 0 mm 4 mps 760 mmHg 82%
    20:00 +14°C° 0 mm 4 mps 760 mmHg 82%
    21:00 +14°C° 0 mm 3 mps 761 mmHg 83%
    22:00 +14°C° 0 mm 2 mps 761 mmHg 84%
    23:00 +14°C° 0 mm 2 mps 761 mmHg 84%
    Mostrar más